Regional Weather Roundup
Issued by NWS Northern Indiana

Home | Current Version | Previous Version | Graphics & Text | Print | Product List | Glossary On
Versions: 1 2 3 4 5 6 7 8 9 10 11 12 13 14 15 16 17 18 19 20 21 22 23 24 25 26 27 28 29 30 31 32 33 34 35 36 37 38 39 40 41 42 43 44 45 46 47 48 49 50
000
ASUS43 KIWX 271400
RWRIWX

KIWX WEATHER ROUNDUP
NATIONAL WEATHER SERVICE NORTHERN INDIANA
900 AM EST TUE JAN 27 2015

NOTE: "FAIR" INDICATES FEW OR NO CLOUDS BELOW 12,000 FEET WITH NO
SIGNIFICANT WEATHER AND/OR OBSTRUCTIONS TO VISIBILITY.

* THESE STATIONS ARE NOT UNDER NWS QUALITY CONTROL. THEY ALSO MAY NOT
  REPORT WEATHER SUCH AS PRECIPITATION OR FOG.

INZ001>027-271500-
NORTHERN INDIANA

CITY           SKY/WX    TMP DP  RH WIND       PRES   REMARKS
GARY*          CLOUDY    28  18  64 NE8       30.09R WCI  20
SOUTH BEND     PTCLDY    22  11  62 NE3       30.09R
ELKHART*       CLOUDY    21  10  63 NE5       30.09R WCI  15
GOSHEN         CLOUDY    20  13  74 NE3       30.07R
ANGOLA*        CLEAR     16  10  79 N3        30.06R
FORT WAYNE     MOCLDY    18  11  74 NE6       30.07R WCI  10
PERU/GRISSOM   CLOUDY    21  13  73 E7        30.06R WCI  12

$$
INZ028>050-271500-
CENTRAL INDIANA

CITY           SKY/WX    TMP DP  RH WIND       PRES   REMARKS
LAFAYETTE      CLOUDY    24  23  96 NE5       30.07R FOG     WCI  18
KOKOMO*        CLOUDY    19  12  73 E8        30.06R WCI   9
MUNCIE*        CLOUDY    19  12  74 E5        30.05R WCI  12
INDIANAPOLIS   CLOUDY    24  22  91 NE6       30.03R WCI  17

$$
MIZ043>046-050>051-056>058-064>065-071>073-077>080-271500-
SOUTHWEST LOWER MICHIGAN

CITY           SKY/WX    TMP DP  RH WIND       PRES   REMARKS
BATTLE CREEK   CLOUDY    19  11  70 NE7       30.10R WCI  10
BENTON HARBOR  MOCLDY    19  12  74 E6        30.10R WCI  11
COLDWATER*     MOCLDY    18  12  79 NE8       30.09R WCI   7
HILLSDALE*     CLOUDY    16  12  85 CALM      30.06R
HOLLAND        CLEAR     20  11  68 NE9       30.13R WCI   9
GRAND RAPIDS   MOCLDY    17  11  77 NE7       30.12R WCI   8
KALAMAZOO      CLOUDY    19  12  74 NE6       30.10R WCI  11
STURGIS*       MOCLDY    16  10  79 NE6       30.08R WCI   7
THREE RIVERS*  FAIR      19  12  75 NE6       30.10R WCI  10

$$
OHZ001>008-015>018-024>025-271500-
NORTHWEST OHIO

CITY           SKY/WX    TMP DP  RH WIND       PRES   REMARKS
DEFIANCE       MOCLDY    16  10  77 N3        30.10R
FINDLAY        CLOUDY    15  10  80 N7        30.06R WCI   5
TOLEDO EXPRESS MOSUNNY   14  10  84 NE5       30.08R WCI   6
TOLEDO METCALF PTSUNNY   14   8  77 CALM      30.09R
LIMA           CLOUDY    13   8  81 NW5       30.05R HAZE    WCI   5

$$
AND FOR LAKE MICHIGAN COASTAL AND OPEN LAKE BUOY OBSERVATIONS

STATION/POSITION TEMP    WIND        PRES    VSBY  WAVE
                 AIR SEA DIR/SP/G                  HT/PER
                 (F)     (DEG/KT/KT) (MB)    (MI)  (FT/S)
CALUMET HARBOR    28      50/  9/ 13   N/A
MICHIGAN CITY     23      60/  4/  5   N/A
SAINT JOSEPH      21      70/  1/  6 1019.6R

$$
&&



USA.gov is the U.S. government's official web portal to all federal, state and local government web resources and services.